DECAYED

CZ-6A DEB, 55549 (Decayed)

Orbit data source: Space-Track

CZ-6A DEB, 55549 was space debris in SSO originally from a launch on Fri, 11 Nov 2022 UTC launched from the Taiyaun Space Center, China (TSC). Debris objects in space refer to the collection of defunct objects orbiting the Earth. Examples of debris include non-operational satellites, rocket bodies, and fragments generated from explosions, collisions, or faulty payload assembly.

Not visible in the next 10 days
Identifier
55549, 2022-151YX
Orbit
Decayed
Country
Flag of CNCN / PRC
Related business
Manufacturer
SAST
Mission
Decayed spacecraft
Bus & Motor
Unknown
Mass
Unknown
Launch date (UTC)
2022-11-11 (4 years ago)
Launch vehicle
Unknown
Launch site
Taiyaun Space Center, China (TSC)
Object type
Payload
Rocket body
Debris
Shape & HBR
Unknown shape, 0.1 m
Radar Cross Section
Medium (>0.1 m² and <1 m²)

Expand to show TLE details & history
Last TLE update: 11 months ago

TLE from 11 months ago
0 CZ-6A DEB
1 55549U 22151YX  25239.67943778  .01709167  00000-0  17326-1 0  9992
2 55549  98.6850 311.1731 0023064 273.8910  85.9707 15.61690625143070
Epoch: 2025-08-27T16:18Z
TLE epoch observation values (Epoch: 2025-08-27T16:18:23.424Z)
Latitude
0.00001°
Longitude
90.42217°
Altitude
384.819 km
Speed
7.68 km/s
True Right ascension
20h 44m 41s
True Declination
0° 00' 00"
Sunlit
Object was in full shadow at epoch
Visualization orbit readout
Latitude
Unknown
Longitude
Unknown
Altitude
Unknown
Speed
Unknown
Apparent Right ascension
Unknown
Apparent Declination
Unknown
Sunlit
N/A
Visualization observer readout
Local Sidereal Time
01:54:58
Azimuth
Unknown
Elevation
Unknown
Doppler factor
Unknown
Orbital elements
Apogee altitude
395.331 km
Perigee altitude
364.158 km
Semi-major axis
6,757.881 km
Eccentricity
0.00231
Inclination
98.685°
RAAN
311.1731°
Arg. of periapsis
273.891°
True anomaly
86.23439°
Mean anomaly
85.9707°
Eccentric anomaly
86.10254°
Mean motion
3.90686 °/min
Orbital period
92.15 mins
BSTAR
0.017326
Loading maneuver chart data...
Computing Atmospheric mass density...
Loading historical data...
Loading historical data...
Loading historical data...
Loading historical data...
Loading historical data...
Loading historical data...
Loading historical data...

Documentation

Showing up to 5 results
|